Home > Weather > Hong Kong > Past weeks

Flag for Hong Kong Past Weather in Hong Kong, Hong Kong — Yesterday and Last 2 Weeks

Now
84 °F

Sprinkles. Passing clouds.


Feels Like: 96 °F
Forecast: 82 / 90 °F
Wind: 6 mph from South

Location: National Airport

Current Time: May 30, 2016 at 3:16:07 AM

Latest Report: May 30, 2016 at 2:30 AM


Visibility: 5 mi

Pressure: 29.74 "Hg

Humidity: 84%

Dew Point: 79 °F

Location of Hong KongLocation

Past Weather in Hong Kong — Graph

°F

Hong Kong Temperature Yesterday

Maximum temperature yesterday: 90 °F (at 11:30 AM)
Minimum temperature yesterday: 82 °F (at 4:30 AM)
Average temperature yesterday: 86 °F

High & Low Weather Summary for the Past Weeks

 TemperatureHumidityPressure
High91 °F (May 25, 12:30 PM)100% (May 21, 1:00 AM)29.95 "Hg (May 21, 1:00 AM)
Low73 °F (May 16, 12:30 AM)48% (May 16, 5:00 PM)29.65 "Hg (May 20, 5:00 PM)
Average82 °F75%29.78 "Hg
* Reported May 15 2:00 AM — May 30 2:00 AM, Hong Kong, Weather by CustomWeather, © 2016

Note: Actual official high and low records may vary slightly from our data, if they occured in-between our weather recording intervals... More about our weather records

Advertising

Hong Kong Weather History for the Previous 24 Hours

Scroll right to see more
 ConditionsComfort  
Time TempWeatherWind HumidityBarometerVisibility
2:00 AM
Mon, May 30
84 °FPassing clouds.9 mph79%29.74 "HgN/A
1:30 AM84 °FPassing clouds.7 mph79%29.74 "HgN/A
1:00 AM84 °FPassing clouds.5 mph84%29.74 "HgN/A
12:30 AM86 °FPassing clouds.5 mph79%29.77 "HgN/A
12:00 AM86 °FPassing clouds.5 mph79%29.77 "HgN/A
11:30 PM
Sun, May 29
86 °FPassing clouds.5 mph79%29.77 "HgN/A
11:00 PM86 °FPassing clouds.8 mph79%29.80 "HgN/A
10:30 PM86 °FPassing clouds.7 mph75%29.80 "HgN/A
10:00 PM86 °FPassing clouds.7 mph75%29.80 "HgN/A
9:30 PM86 °FPassing clouds.7 mph75%29.77 "HgN/A
9:00 PM86 °FPassing clouds.8 mph75%29.77 "HgN/A
8:30 PM86 °FPassing clouds.8 mph75%29.74 "HgN/A
8:00 PM86 °FPassing clouds.7 mph79%29.74 "HgN/A
7:30 PM86 °FPassing clouds.9 mph75%29.74 "HgN/A
7:00 PM86 °FPassing clouds.9 mph75%29.71 "HgN/A
6:30 PM86 °FPassing clouds.9 mph75%29.71 "HgN/A
6:00 PM88 °FPassing clouds.10 mph70%29.71 "HgN/A
5:30 PM88 °FPassing clouds.10 mph70%29.71 "HgN/A
5:00 PM90 °FScattered clouds.16 mph71%29.71 "HgN/A
4:30 PM90 °FScattered clouds.14 mph71%29.71 "HgN/A
4:00 PM90 °FScattered clouds.14 mph71%29.71 "HgN/A
3:30 PM90 °FScattered clouds.12 mph67%29.71 "HgN/A
3:00 PM90 °FScattered clouds.14 mph71%29.71 "HgN/A
2:30 PM90 °FScattered clouds.12 mph67%29.71 "HgN/A
2:00 PM90 °FScattered clouds.14 mph67%29.74 "HgN/A
1:30 PM90 °FScattered clouds.14 mph71%29.74 "HgN/A
1:00 PM90 °FScattered clouds.14 mph71%29.74 "HgN/A
12:30 PM90 °FScattered clouds.14 mph67%29.77 "HgN/A
12:00 PM90 °FScattered clouds.13 mph71%29.77 "HgN/A
11:30 AM90 °FScattered clouds.14 mph71%29.77 "HgN/A
11:00 AM88 °FScattered clouds.9 mph75%29.80 "HgN/A
10:30 AM86 °FScattered clouds.13 mph79%29.77 "HgN/A
10:00 AM88 °FScattered clouds.12 mph70%29.80 "HgN/A
9:30 AM88 °FScattered clouds.10 mph75%29.80 "HgN/A
9:00 AM86 °FScattered clouds.9 mph79%29.80 "HgN/A
8:30 AM86 °FScattered clouds.6 mph84%29.80 "HgN/A
8:00 AM84 °FScattered clouds.6 mph84%29.77 "HgN/A
7:30 AM86 °FScattered clouds.8 mph79%29.77 "HgN/A
7:00 AM84 °FScattered clouds.5 mph84%29.77 "HgN/A
6:30 AM84 °FScattered clouds.3 mph84%29.77 "HgN/A
6:00 AM82 °FScattered clouds.6 mph89%29.77 "Hg6 mi
5:30 AM82 °FPassing clouds.2 mph89%29.74 "HgN/A
5:00 AM84 °FPassing clouds.6 mph84%29.74 "HgN/A
4:30 AM82 °FPassing clouds.5 mph89%29.74 "HgN/A
4:00 AM84 °FSprinkles. Passing clouds.3 mph84%29.74 "HgN/A
3:30 AM84 °FPassing clouds.7 mph84%29.74 "HgN/A
3:00 AM84 °FPassing clouds.10 mph84%29.74 "HgN/A
Weather by CustomWeather, © 2016

See weather overviewHow to use our weather pages